Location: Chippewa Lake
(41.0698°N, 81.9010°W)
Time: 19:36:52
(UTC+00:00)

Cosmos 1315 Rocket - Pass Details

Date: 09 May 2021
Orbit: 529 x 567 km, 81.2° (Epoch: 16 June)

Event Time Altitude Azimuth Distance (km) Brightness Sun altitude
Rises 07:29:57 0° 353° (N) 2,697 7.1 -24.6°
Reaches altitude 10° 07:32:07 10° 357° (N) 1,807 6.1 -24.4°
Maximum altitude 07:36:04 62° 79° (ENE) 616 3.1 -24.0°
Enters shadow 07:36:14 61° 94° (E) 620 3.1 -23.9°
